Probability
0 0 0 0 0 0 0 3 10 39 55 61 52 55 39 35 39 35 32 32 39 39 39 32 29 26 26 32 32 29 35 29 26 19 16 16 13 13 19 16 13 19 16 13
0 0 0 0 0 0 0 3 23 55 55 48 48 42 39 29 35 32 26 26 29 35 39 35 29 32 26 26 23 23 19 13 13 13 19 19 16 6 10 6 6 6 6 6
0 0 0 0 0 0 0 3 13 42 48 42 45 39 39 29 26 32 35 26 19 23 29 26 23 23 16 13 10 6 6 6 10 10 6 6 13 10 6 0 3 3 0 3
0 0 0 0 0 0 3 3 13 19 35 26 35 10 39 35 35 26 29 29 19 23 23 19 13 13 13 13 13 10 10 10 10 6 3 10 6 6 6 3 3 0 0 0
0 0 0 0 0 0 6 3 19 16 23 19 13 6 16 26 19 23 23 23 23 26 16 16 6 10 10 3 6 10 6 6 6 3 3 6 3 3 0 3 3 3 0 0
0 0 0 0 0 0 6 13 13 10 3 0 3 3 0 23 23 16 13 13 19 16 10 3 6 10 6 3 3 0 3 3 3 0 0 0 0 0 0 3 0 0 0 0
0 0 0 0 0 3 3 0 0 0 3 0 3 0 3 6 6 6 6 6 6 6 10 6 13 6 0 0 0 0 0 6 0 0 0 0 0 0 0 0 0 0 0 0
0 0 0 0 3 3 3 0 0 0 0 0 3 0 6 3 6 6 6 6 3 3 3 3 6 0 3 3 3 3 0 3 0 0 0 0 0 0 0 0 0 0 0 0
0 0 0 0 0 3 3 0 0 0 0 0 0 3 13 6 3 6 0 3 3 3 0 0 0 3 3 3 3 0 0 0 0 0 0 0 0 0 0 0 0 0 0 0
0 0 0 0 0 0 0 0 0 0 0 0 0 0 3 10 6 3 0 0 0 3 3 0 3 3 3 0 0 0 0 0 0 0 0 0 0 0 0 0 0 0 0 0
0 0 0 0 0 0 0 0 0 0 0 0 0 0 0 6 6 3 0 0 0 0 0 0 3 3 3 0 0 0 0 0 0 0 0 0 0 0 0 0 0 0 0 0
0 0 0 0 0 0 0 0 0 0 0 0 0 0 0 3 0 0 0 0 0 0 0 0 0 0 0 0 0 0 0 0 0 0 0 0 0 0 0 0 0 0 0 0
0 0 0 0 0 0 0 0 0 0 0 0 0 0 0 3 0 0 0 0 0 0 0 0 0 0 0 0 0 0 0 0 0 0 0 0 0 0 0 0 0 0 0 0
0 0 0 0 0 0 0 0 0 0 0 0 0 0 0 0 0 0 0 0 0 0 0 0 0 0 0 0 0 0 0 0 0 0 0 0 0 0 0 0 0 0 0 0
0 0 0 0 0 0 0 0 0 0 0 0 0 0 0 0 0 0 0 0 0 0 0 0 0 0 0 0 0 0 0 0 0 0 0 0 0 0 0 0 0 0 0 0
0 0 0 0 0 0 0 0 0 0 0 0 0 0 0 0 0 3 0 0 0 0 0 0 0 0 0 0 0 0 0 0 0 0 0 0 0 0 0 0 0 0 0 0
0 3 0 0 0 0 0 0 0 0 0 0 0 0 0 0 0 3 0 0 0 0 0 0 0 0 0 0 0 0 0 0 0 0 0 0 0 0 0 0 0 0 0 0
6 3 0 0 0 0 0 0 0 0 0 0 0 0 0 0 0 0 0 0 0 0 0 0 0 0 0 0 0 0 0 0 0 0 0 0 0 0 0 0 0 0 0 0
6 6 0 0 0 0 0 0 0 0 0 0 0 0 0 0 0 0 0 0 0 0 0 0 0 0 0 0 0 0 0 0 0 0 0 0 0 0 0 0 0 0 0 0
3 19 0 0 0 0 0 0 0 0 0 0 0 0 0 0 0 0 0 0 0 0 0 0 0 0 0 0 0 0 0 0 0 0 0 0 0 0 0 0 0 0 0 0
0 6 0 0 0 0 0 0 0 0 0 0 0 0 0 0 0 0 0 0 0 0 0 0 0 0 0 0 0 0 0 0 0 0 0 0 0 0 0 0 0 0 0 0
0 0 0 0 0 0 0 0 0 0 0 0 0 0 0 0 0 0 0 0 0 0 0 0 0 0 0 0 0 0 0 0 0 0 0 0 0 0 0 0 0 0 0 0
0 0 0 0 0 10 0 0 0 0 0 0 0 0 0 0 0 0 0 0 0 0 0 0 0 0 0 0 0 0 0 0 0 0 0 0 0 0 0 0 0 0 0 0
3 13 10 13 0 0 0 0 0 0 0 0 0 0 0 0 0 0 0 0 0 0 0 0 0 0 0 0 0 0 0 0 0 0 0 0 0 0 0 0 0 0 0 0
0 3 3 3 0 0 0 0 0 0 0 0 0 0 0 0 0 0 0 0 0 0 0 0 0 0 0 0 0 0 0 0 0 0 0 0 0 0 0 0 0 0 0 0
0 0 0 0 3 0 0 0 0 0 0 0 0 0 0 0 0 0 0 0 0 0 0 0 0 0 0 0 0 0 0 0 0 0 0 0 0 0 0 0 0 0 0 0
Height
5883 5883 5882 5881 5879 5879 5877 5877 5876 5875 5873 5873 5872 5871 5870 5869 5868 5868 5867 5866 5864 5863 5861 5859 5857 5855 5852 5850 5849 5847 5845 5843 5841 5840 5838 5836 5835 5833 5832 5831 5830 5828 5828 5827
5883 5882 5881 5879 5878 5877 5876 5875 5874 5873 5872 5871 5871 5870 5868 5867 5866 5865 5864 5862 5861 5859 5857 5855 5853 5850 5848 5845 5843 5841 5840 5838 5836 5834 5832 5830 5828 5826 5825 5823 5822 5821 5820 5819
5882 5882 5879 5878 5877 5876 5875 5874 5873 5872 5871 5870 5869 5868 5867 5865 5863 5862 5861 5859 5858 5855 5853 5851 5848 5846 5843 5841 5839 5837 5835 5833 5830 5828 5826 5824 5822 5820 5818 5816 5815 5813 5812 5811
5880 5879 5878 5877 5876 5875 5874 5873 5872 5871 5871 5869 5869 5867 5865 5863 5861 5860 5858 5856 5855 5852 5850 5847 5845 5842 5839 5837 5835 5832 5830 5827 5824 5822 5819 5817 5815 5813 5811 5809 5807 5805 5804 5802
5879 5878 5877 5876 5875 5874 5873 5872 5871 5870 5869 5868 5867 5866 5865 5861 5860 5858 5856 5855 5853 5850 5847 5845 5842 5839 5836 5833 5830 5828 5825 5822 5819 5816 5813 5811 5808 5806 5803 5801 5799 5797 5795 5794
5877 5876 5875 5874 5873 5873 5872 5871 5870 5869 5868 5868 5866 5865 5864 5861 5859 5857 5855 5853 5850 5848 5845 5842 5839 5836 5833 5830 5827 5824 5820 5817 5814 5811 5808 5805 5802 5799 5797 5794 5791 5789 5787 5785
5876 5875 5873 5873 5872 5871 5871 5871 5871 5870 5869 5868 5865 5864 5863 5860 5858 5856 5854 5851 5849 5846 5843 5840 5837 5834 5831 5827 5823 5820 5816 5812 5809 5805 5802 5799 5796 5793 5790 5787 5783 5780 5778 5775
5876 5875 5873 5871 5871 5870 5869 5870 5871 5871 5870 5867 5864 5863 5862 5859 5857 5855 5852 5850 5847 5844 5841 5838 5834 5831 5827 5823 5819 5815 5811 5808 5804 5800 5797 5794 5790 5786 5783 5779 5776 5772 5769 5766
5875 5874 5872 5870 5869 5869 5868 5868 5868 5868 5867 5866 5865 5863 5860 5858 5856 5853 5851 5848 5846 5842 5839 5835 5832 5828 5824 5820 5816 5811 5807 5803 5799 5795 5791 5788 5784 5780 5776 5772 5768 5764 5761 5757
5872 5872 5870 5869 5869 5868 5868 5867 5867 5867 5866 5867 5865 5862 5860 5857 5855 5852 5850 5847 5844 5841 5837 5833 5829 5825 5821 5816 5812 5807 5803 5799 5794 5790 5786 5781 5777 5773 5769 5764 5760 5756 5752 5748
5870 5870 5870 5868 5868 5867 5867 5866 5865 5865 5865 5865 5864 5863 5859 5856 5854 5851 5848 5845 5842 5839 5835 5831 5826 5822 5818 5813 5808 5804 5799 5794 5790 5785 5780 5776 5771 5767 5762 5757 5752 5748 5743 5739
5868 5868 5868 5867 5866 5865 5865 5864 5864 5864 5863 5862 5862 5862 5856 5854 5852 5849 5846 5843 5840 5836 5832 5828 5823 5819 5814 5809 5805 5800 5795 5790 5785 5780 5775 5770 5765 5760 5755 5750 5745 5740 5735 5731
5865 5866 5867 5866 5866 5864 5862 5862 5862 5861 5861 5860 5860 5860 5854 5852 5850 5847 5844 5841 5838 5834 5829 5825 5820 5816 5811 5806 5801 5796 5790 5785 5780 5775 5770 5764 5759 5754 5749 5743 5738 5733 5727 5722
5863 5863 5865 5866 5864 5862 5861 5860 5859 5859 5859 5858 5857 5855 5852 5850 5848 5845 5842 5839 5835 5831 5827 5822 5817 5813 5808 5802 5797 5792 5786 5781 5775 5770 5765 5759 5754 5748 5743 5737 5731 5725 5720 5714
5860 5860 5860 5860 5859 5859 5858 5858 5857 5857 5856 5856 5854 5852 5850 5848 5845 5842 5839 5836 5832 5828 5824 5819 5814 5809 5804 5799 5794 5788 5783 5777 5771 5765 5760 5754 5748 5743 5737 5731 5724 5718 5712 5706
5857 5857 5857 5857 5856 5856 5855 5855 5854 5854 5853 5852 5851 5849 5847 5845 5842 5840 5836 5833 5829 5825 5821 5816 5812 5806 5801 5796 5790 5785 5779 5773 5767 5761 5755 5749 5743 5737 5731 5725 5718 5712 5705 5699
5854 5854 5854 5855 5854 5853 5853 5852 5851 5851 5850 5849 5848 5847 5844 5842 5839 5837 5833 5830 5826 5822 5818 5814 5809 5803 5798 5793 5787 5781 5775 5769 5763 5757 5751 5745 5739 5732 5726 5719 5712 5705 5699 5692
5851 5851 5851 5851 5852 5851 5852 5849 5848 5847 5846 5845 5844 5842 5841 5839 5836 5833 5830 5827 5823 5819 5815 5810 5806 5800 5795 5789 5784 5778 5772 5766 5760 5753 5747 5741 5734 5727 5721 5714 5707 5700 5693 5686
5847 5848 5848 5848 5849 5848 5848 5846 5845 5844 5843 5842 5840 5839 5837 5835 5833 5830 5827 5824 5820 5816 5812 5807 5803 5797 5792 5786 5780 5774 5768 5762 5756 5750 5743 5737 5730 5723 5716 5709 5702 5695 5688 5681
5844 5844 5845 5845 5845 5846 5846 5843 5842 5842 5840 5839 5837 5835 5834 5832 5830 5827 5823 5820 5817 5813 5809 5804 5799 5794 5789 5783 5777 5771 5765 5759 5753 5746 5740 5733 5726 5719 5712 5705 5698 5691 5684 5677
5840 5840 5841 5841 5841 5842 5841 5839 5839 5840 5838 5835 5833 5832 5830 5828 5826 5823 5820 5817 5813 5810 5806 5801 5796 5791 5786 5780 5774 5768 5762 5756 5749 5743 5736 5729 5723 5716 5708 5701 5694 5687 5680 5673
5836 5837 5837 5837 5838 5840 5836 5835 5836 5835 5833 5831 5830 5828 5826 5824 5822 5819 5816 5813 5810 5806 5802 5798 5793 5788 5783 5777 5771 5765 5759 5753 5746 5740 5733 5726 5719 5712 5705 5698 5691 5684 5677 5670
5832 5833 5833 5834 5835 5833 5832 5831 5831 5830 5829 5827 5826 5824 5822 5820 5818 5815 5812 5809 5806 5802 5798 5794 5790 5785 5779 5774 5768 5762 5756 5749 5743 5736 5730 5723 5716 5709 5702 5695 5688 5681 5674 5667
5827 5827 5828 5829 5828 5828 5827 5826 5826 5825 5824 5823 5821 5820 5818 5816 5813 5811 5808 5805 5802 5798 5795 5790 5786 5781 5776 5770 5765 5759 5752 5746 5739 5733 5726 5720 5713 5706 5699 5692 5685 5678 5671 5665
5821 5822 5823 5823 5823 5823 5822 5822 5821 5820 5819 5818 5816 5815 5813 5811 5809 5806 5804 5801 5798 5794 5790 5786 5782 5777 5772 5767 5761 5755 5749 5742 5736 5730 5723 5717 5710 5703 5696 5689 5682 5675 5669 5662
5816 5817 5817 5818 5818 5818 5817 5816 5816 5815 5814 5813 5811 5810 5808 5806 5804 5801 5799 5796 5793 5790 5786 5782 5778 5773 5768 5763 5757 5751 5745 5739 5733 5726 5720 5713 5707 5700 5693 5686 5679 5673 5667 5660
Wind_Speed
11 10 9 8 7 7 7 8 8 8 9 10 11 11 11 12 12 13 15 17 18 19 19 19 20 21 21 21 21 21 22 22 22 23 23 24 25 25 25 26 26 26 27 27
10 9 9 8 7 7 7 7 8 9 9 9 10 11 11 12 12 13 14 15 16 17 17 18 20 21 21 21 21 21 21 22 22 23 23 24 25 26 26 26 27 27 28 28
8 8 8 7 6 6 7 8 9 9 8 9 10 10 10 11 11 12 13 14 15 16 16 17 18 18 19 19 20 20 21 22 22 23 24 25 26 26 26 26 27 27 28 29
8 8 8 7 6 6 8 8 8 9 9 10 10 11 11 10 10 10 12 13 14 15 15 17 18 18 18 19 20 21 22 23 23 24 24 25 25 26 26 27 27 28 28 29
8 8 8 7 7 7 8 9 8 9 9 9 10 10 10 10 11 11 11 12 13 15 16 17 17 18 19 19 20 20 21 22 22 23 23 24 24 25 26 27 27 28 29 30
8 8 8 8 8 8 8 8 8 8 8 8 8 8 10 11 11 10 11 12 13 15 16 17 17 18 19 19 20 21 21 22 22 23 23 23 24 25 26 27 28 29 30 31
8 7 7 7 7 7 7 6 7 8 7 7 7 7 8 9 9 10 11 12 14 15 17 17 18 18 19 19 20 21 22 22 23 23 23 24 24 25 26 28 29 30 31 31
6 7 7 6 6 6 5 4 3 4 6 6 7 7 8 9 9 10 12 13 15 16 17 18 18 19 19 20 21 22 22 23 23 23 23 24 24 25 26 28 29 30 30 31
5 7 6 5 5 4 4 4 4 4 5 5 7 8 8 9 10 11 12 13 15 16 18 18 18 19 20 21 22 22 23 23 23 23 23 24 25 26 27 28 28 29 30 31
5 6 6 5 5 4 5 5 5 4 4 5 7 8 9 9 10 12 13 14 15 17 18 18 19 19 20 21 22 23 23 23 23 23 24 25 25 26 27 28 28 29 30 30
6 6 6 6 5 5 6 5 5 4 5 4 6 9 9 10 11 12 13 14 16 17 18 19 20 20 21 22 23 23 23 23 23 24 24 25 26 27 27 28 28 29 29 30
6 6 7 7 7 7 7 6 5 5 6 5 6 9 9 10 11 12 13 15 17 18 19 20 21 21 22 23 23 23 23 24 24 25 25 26 27 27 27 28 28 29 29 30
7 6 5 8 9 8 7 7 6 6 6 6 6 10 10 10 11 13 14 15 17 18 20 20 21 21 22 23 24 24 24 25 25 26 26 27 27 27 28 28 29 29 30 31
8 7 7 8 9 10 8 7 7 6 6 7 8 9 10 11 12 13 14 16 17 18 20 21 21 22 23 24 25 25 25 26 26 27 27 28 28 28 29 30 30 31 31 31
9 8 8 9 9 9 8 8 8 8 8 8 9 10 10 11 13 14 15 16 17 19 20 21 22 23 24 25 25 26 26 27 27 27 28 28 28 29 30 31 31 31 31 31
9 9 9 9 8 8 9 9 9 9 9 9 10 10 11 12 14 15 15 16 18 19 21 22 23 23 24 25 26 26 27 28 28 28 28 29 29 30 30 31 31 31 31 31
10 9 8 8 9 9 9 9 10 10 10 10 10 11 12 13 14 15 16 17 18 20 21 22 23 24 25 26 26 27 28 28 28 29 29 30 30 30 31 31 31 31 31 30
9 8 8 8 9 9 10 10 11 10 11 10 11 11 12 13 14 15 16 17 18 20 21 22 23 24 25 26 27 28 28 28 29 29 29 30 31 31 31 31 31 31 30 30
10 9 9 8 8 9 11 10 10 10 10 11 11 11 12 13 14 15 16 17 18 20 21 22 24 25 26 27 27 28 28 29 29 29 30 31 31 31 32 32 31 31 30 29
11 10 10 10 9 9 11 10 9 10 10 11 11 12 13 13 14 15 16 17 18 20 21 22 24 25 26 27 27 28 29 30 30 30 30 31 32 32 32 32 31 30 29 29
12 12 11 11 11 11 12 11 10 10 11 11 12 12 13 14 15 15 16 17 18 20 21 22 24 25 27 28 28 28 29 30 30 31 31 31 32 32 32 32 31 30 29 29
14 13 12 12 11 13 13 12 11 11 12 12 12 13 13 14 15 16 17 18 19 20 21 22 24 26 27 28 28 28 29 30 31 31 31 32 32 33 33 32 31 30 29 29
15 15 14 13 14 14 13 13 13 13 13 13 13 14 14 14 15 16 17 18 19 20 21 22 24 26 27 27 28 29 30 31 31 31 31 32 32 33 33 33 31 30 29 29
16 16 16 15 16 15 15 15 14 14 14 14 15 15 15 15 16 17 18 19 19 20 21 22 24 26 27 27 28 29 30 31 31 31 32 32 32 33 33 33 32 30 30 29
18 17 17 17 17 17 17 16 16 16 16 17 17 17 17 17 17 18 19 19 20 21 22 23 24 26 27 28 29 30 31 32 32 32 32 32 32 33 33 33 32 30 30 29
19 19 18 19 19 18 18 18 18 18 18 18 18 18 18 18 19 19 20 20 21 21 22 23 24 26 27 28 29 31 31 32 32 32 33 33 33 33 33 33 32 31 30 29
Wind_Direction
335 336 336 327 326 321 315 310 310 309 306 301 298 298 299 298 294 288 288 290 291 297 297 296 297 298 297 299 297 295 294 294 294 292 292 290 289 288 287 285 283 282 279 276
333 331 326 321 317 322 327 322 319 317 314 309 308 310 311 304 297 294 293 297 300 302 304 302 302 302 303 303 302 302 299 298 297 296 295 293 291 290 289 286 283 282 280 277
326 319 321 318 318 328 333 329 322 318 319 321 321 319 318 315 304 301 300 304 309 309 309 310 311 310 308 306 306 305 303 302 300 299 297 295 293 291 289 287 285 283 282 279
317 316 319 321 317 318 319 322 319 318 319 317 320 323 326 325 319 314 315 318 319 321 322 321 320 319 314 311 309 309 308 306 304 302 299 297 296 293 291 290 288 286 284 282
315 312 313 313 309 308 312 317 319 318 321 321 323 328 331 333 331 329 329 331 331 331 331 329 327 324 321 318 316 313 312 310 308 306 304 301 299 297 295 293 290 288 286 284
316 312 308 305 304 308 311 315 319 328 336 330 329 334 331 336 338 337 339 339 337 335 333 330 328 325 322 319 317 316 315 314 312 309 306 304 302 300 298 296 293 291 289 286
317 317 311 308 307 312 317 329 343 341 335 326 335 338 329 334 339 342 343 341 339 337 333 330 327 325 324 323 322 320 318 316 314 312 308 306 304 302 301 299 297 295 293 290
302 306 309 308 311 317 325 333 327 318 314 322 332 336 333 341 343 343 342 340 338 335 333 331 329 328 328 327 325 323 322 319 316 313 311 309 307 305 304 303 301 298 296 293
280 289 298 303 315 319 320 320 322 334 335 337 331 334 335 339 342 342 340 339 337 336 334 334 333 332 331 330 328 327 324 322 319 317 315 313 311 310 308 307 305 301 298 295
269 283 292 300 309 310 307 306 316 326 323 330 326 327 329 333 336 338 338 338 337 337 336 336 335 334 333 333 332 330 328 325 324 322 320 318 317 315 314 312 309 306 303 298
267 273 287 295 300 297 303 303 306 309 312 323 315 314 323 329 331 333 335 336 337 337 337 337 337 337 337 337 336 333 331 329 327 327 325 323 321 319 318 316 313 310 307 303
263 266 274 285 289 288 294 295 297 304 309 315 316 311 321 326 330 332 333 335 337 338 339 339 339 340 340 340 339 337 336 334 332 331 329 327 325 324 322 321 318 315 312 308
263 266 281 295 296 290 290 289 291 297 306 313 316 310 319 324 329 332 334 336 338 340 341 341 342 342 342 341 341 340 339 338 336 334 332 330 329 327 325 324 321 319 316 313
263 264 246 249 267 282 287 287 290 294 302 306 307 307 314 321 327 331 334 337 340 341 342 343 344 344 344 344 343 342 341 339 338 336 334 332 331 329 327 326 325 322 319 316
259 265 262 264 271 276 279 284 287 287 291 298 301 305 310 318 324 329 332 336 340 342 343 344 345 345 345 345 344 343 342 341 340 338 336 334 333 331 329 328 327 326 323 320
256 262 266 270 273 276 278 282 284 286 289 292 297 300 307 315 321 326 330 334 338 341 343 345 345 345 345 344 344 343 343 342 341 340 339 336 334 333 332 331 331 329 327 325
255 259 264 271 275 277 283 282 284 286 288 293 297 298 305 312 318 323 327 332 336 339 342 344 345 345 345 346 346 344 344 343 342 341 340 338 336 335 334 334 334 333 331 330
256 259 264 269 274 279 278 281 285 288 288 292 295 298 303 310 316 321 326 331 334 338 341 342 344 345 346 347 347 346 345 345 344 342 342 341 340 338 337 336 336 336 335 335
257 256 262 267 275 280 284 285 286 287 288 291 295 298 304 311 315 320 326 330 333 336 339 341 343 345 346 346 346 346 347 346 345 344 343 343 342 341 340 339 339 338 338 338
255 255 261 264 266 272 280 285 286 288 289 292 295 299 306 310 315 320 325 328 332 334 337 340 343 345 346 346 346 346 347 347 347 346 345 345 345 344 343 342 341 341 340 340
252 255 259 262 269 273 277 283 287 291 290 292 294 300 306 310 314 319 324 327 330 333 336 339 342 344 345 346 346 346 346 347 347 347 347 347 346 346 345 344 344 343 343 342
249 253 255 259 266 267 275 281 284 286 289 291 294 298 304 309 313 317 321 325 328 331 334 337 341 344 345 345 346 346 346 347 347 348 348 347 347 347 346 346 346 346 345 345
246 247 251 256 262 266 271 277 280 283 288 292 295 298 303 307 311 315 319 323 326 329 332 335 339 341 343 345 345 346 346 346 347 347 348 348 348 348 348 347 346 347 347 347
249 248 252 257 261 266 270 275 279 283 288 292 295 298 302 305 309 313 317 320 323 326 329 332 336 339 340 342 344 345 345 346 346 347 347 347 348 348 348 348 347 348 348 348
252 253 255 259 263 267 270 275 278 282 286 290 293 297 300 303 307 310 314 318 320 324 326 329 332 335 337 339 341 342 344 345 346 346 346 346 347 348 348 348 348 348 348 348
253 255 257 261 264 267 271 274 277 281 285 288 291 294 298 302 305 308 312 314 317 320 323 325 329 332 334 336 339 341 343 344 344 345 345 345 345 347 348 348 348 348 348 347